This demonstration page uses our WeatherBlox Daily Observations layout. Learn more.

Left ArrowRight Arrow

38.88101, -77.10428

Hourly Observations for May 29, 2015

Temp ( °F °C ) Dew Point ( °F °C ) Humidity (%) Winds ( mph kmh ) Pressure ( in mb ) Visibility ( mi km ) Precip ( " mm )
12:52 am 00:52 Mostly Cloudy 78 25.6 68 20 71 71 NE 6 9 30.21 1023 10 16 0.00 0.00
1:52 am 01:52 Cloudy 77 25 68 20 74 74 ENE 3 6 30.21 1023 10 16 0.00 0.00
2:52 am 02:52 Cloudy 77 25 68 20 74 74 Calm 30.19 1023 10 16 0.00 0.00
3:52 am 03:52 Partly Cloudy 75 23.9 69 20.6 82 82 NE 13 20 30.20 1023 10 16 0.00 0.00
4:00 am 04:00 Mostly Cloudy 75 24 70 21 83 83 ENE 12 19 30.21 1023 10 16 0.00 0.00
4:52 am 04:52 Mostly Cloudy 75 23.9 69 20.6 82 82 ENE 8 13 30.21 1023 10 16 0.00 0.00
5:52 am 05:52 Partly Cloudy 75 23.9 68 20 79 79 ENE 10 17 30.22 1023 10 16 0.00 0.00
6:52 am 06:52 Mostly Cloudy 74 23.3 66 18.9 76 76 ENE 9 15 30.24 1024 10 16 0.00 0.00
7:52 am 07:52 Partly Cloudy 75 23.9 63 17.2 66 66 ENE 12 19 30.26 1025 10 16 0.00 0.00
8:23 am 08:23 Mostly Cloudy 75 24 63 17 65 65 ENE 9 15 30.27 1025 10 16 0.00 0.00
8:52 am 08:52 Cloudy 76 24.4 64 17.8 67 67 E 9 15 30.27 1025 10 16 0.00 0.00
9:52 am 09:52 Cloudy 76 24.4 65 18.3 69 69 ENE 8 13 30.27 1025 10 16 0.00 0.00
10:52 am 10:52 Cloudy 76 24.4 66 18.9 72 72 NE 7 11 30.27 1025 10 16 0.00 0.00
11:52 am 11:52 Cloudy 77 25 67 19.4 71 71 Calm 30.27 1025 10 16 0.00 0.00
12:52 pm 12:52 Cloudy 79 26.1 69 20.6 72 72 ESE 7 11 30.27 1025 10 16 0.00 0.00
1:39 pm 13:39 Partly Cloudy 81 27 70 21 70 70 ENE 5 7 30.27 1025 10 16 0.00 0.00
1:52 pm 13:52 Partly Cloudy 81 27.2 69 20.6 67 67 Calm 30.26 1025 10 16 0.00 0.00
2:52 pm 14:52 Partly Cloudy 85 29.4 70 21.1 61 61 ENE 5 7 30.23 1024 10 16 0.00 0.00
3:25 pm 15:25 Partly Cloudy 86 30 70 21 59 59 Calm 30.21 1023 10 16 0.00 0.00
3:37 pm 15:37 Partly Cloudy 86 30 70 21 59 59 Calm 30.21 1023 10 16 0.00 0.00
3:46 pm 15:46 Mostly Cloudy with Thunderstorms 84 29 70 21 62 62 S 13 20 30.21 1023 10 16 0.00 0.00
3:52 pm 15:52 Mostly Cloudy with Thunderstorms 83 28.3 67 19.4 59 59 SSW 8 13 30.22 1023 10 16 0.00 0.00
4:01 pm 16:01 Partly Cloudy 82 28 66 19 58 58 S 9 15 30.21 1023 10 16 0.00 0.00
4:52 pm 16:52 Partly Cloudy 85 29.4 70 21.1 61 61 S 6 9 30.19 1022 10 16 0.00 0.00
5:52 pm 17:52 Partly Cloudy 85 29.4 70 21.1 61 61 SE 7 11 30.18 1022 10 16 0.00 0.00
6:52 pm 18:52 Mostly Cloudy 84 28.9 71 21.7 65 65 ESE 13 20 30.17 1022 10 16 0.00 0.00
7:52 pm 19:52 Mostly Cloudy 81 27.2 69 20.6 67 67 SE 12 19 30.17 1022 10 16 0.00 0.00
8:08 pm 20:08 Mostly Cloudy 81 27 70 21 70 70 ESE 10 17 30.18 1022 10 16 0.00 0.00
8:32 pm 20:32 Cloudy 81 27 70 21 70 70 S 7 11 30.18 1022 10 16 0.00 0.00
8:52 pm 20:52 Cloudy 80 26.7 69 20.6 69 69 S 8 13 30.19 1023 10 16 0.00 0.00
9:52 pm 21:52 Partly Cloudy 79 26.1 68 20 69 69 SSE 7 11 30.21 1023 10 16 0.00 0.00
10:52 pm 22:52 Mostly Cloudy 78 25.6 67 19.4 69 69 S 12 19 30.20 1023 10 16 0.00 0.00
11:52 pm 23:52 Mostly Clear 76 24.4 65 18.3 69 69 S 9 15 30.19 1023 10 16 0.00 0.00

Powered by AerisWeather